Regional Weather Roundup
Issued by NWS Boston, MA

Home | Current Version | Previous Version | Text Only | Print | Product List | Glossary On
Versions: 1 2 3 4 5 6 7 8 9 10 11 12 13 14 15 16 17 18 19 20 21 22 23 24 25 26 27 28
000
ASUS41 KBOX 190610
RWRBOX

REGIONAL WEATHER ROUNDUP
NATIONAL WEATHER SERVICE TAUNTON MA
200 AM EDT THU OCT 19 2017

NOTE:  "FAIR" INDICATES FEW OR NO CLOUDS BELOW 12,000 FEET WITH NO
SIGNIFICANT WEATHER AND/OR OBSTRUCTIONS TO VISIBILITY.

MAZALL-190700-
EASTERN MASSACHUSETTS

CITY           SKY/WX    TMP DP  RH WIND       PRES   REMARKS
BOSTON         CLEAR     53  47  79 SW9       30.25S
6HR MIN TEMP:  53; 6HR MAX TEMP:  63;

BEVERLY        CLEAR     48  45  89 CALM      30.24S
LAWRENCE       CLEAR     49  43  80 CALM      30.26S
BEDFORD        CLEAR     42  38  85 CALM      30.24S
BLUE HILL        N/A     54  46  74 SW10      30.25S
NORWOOD        CLEAR     39  37  92 CALM      30.26S
MARSHFIELD     CLEAR     52  52 100 W5        30.26S
PLYMOUTH       CLEAR     48  44  86 CALM      30.27S
TAUNTON        CLEAR     42  40  92 CALM      30.26F FOG
NEW BEDFORD    FOG       46  46 100 CALM      30.26F VSB 1/2
$$

MAZALL-190700-
CAPE COD AND THE ISLANDS

CITY           SKY/WX    TMP DP  RH WIND       PRES   REMARKS
FALMOUTH       CLEAR     45  45 100 CALM      30.28F
HYANNIS        FOG       49  47  93 CALM      30.26F VSB 1/4
CHATHAM        CLEAR     58  57  97 SW3       30.28F
PROVINCETOWN   CLEAR     56  55  97 S6        30.27S
NANTUCKET      CLEAR     55  55 100 SW6       30.29S
MARTHAS VNYRD  PTCLDY    44  43  96 SW3       30.28S FOG
$$

MAZALL-190700-
CENTRAL AND WESTERN MASSACHUSETTS

CITY           SKY/WX    TMP DP  RH WIND       PRES   REMARKS
WORCESTER      CLEAR     51  44  77 W7        30.25S
6HR MIN TEMP:  51; 6HR MAX TEMP:  57;

FITCHBURG      CLEAR     44  43  96 CALM      30.25S
ORANGE         CLEAR     38  38 100 CALM      30.25F FOG
SPRINGFIELD    CLEAR     41  41 100 CALM      30.24S FOG
WESTFIELD      CLEAR     43  42  97 CALM      30.25S
NORTH ADAMS    CLEAR     39  38  96 CALM      30.25S
PITTSFIELD     CLEAR     41  39  93 CALM      30.24S
$$

RIZALL-190700-
RHODE ISLAND

CITY           SKY/WX    TMP DP  RH WIND       PRES   REMARKS
PROVIDENCE     CLEAR     49  49 100 CALM      30.28R
6HR MIN TEMP:  49; 6HR MAX TEMP:  60;

NEWPORT        CLEAR     51  51 100 CALM      30.27S FOG
BLOCK ISLAND   CLEAR     57  56  96 SW6       30.28S
SMITHFIELD     CLEAR     48  47  96 SW3       30.27S
WESTERLY       CLEAR     46  44  93 CALM      30.28S
$$

CTZALL-190700-
CONNECTICUT

CITY           SKY/WX    TMP DP  RH WIND       PRES   REMARKS
BRADLEY INTL   CLEAR     45  44  97 CALM      30.25F
6HR MIN TEMP:  45; 6HR MAX TEMP:  58;

HARTFORD       FOG       48  46  93 CALM      30.26S VSB 1/4
BRIDGEPORT     CLEAR     52  49  89 CALM      30.26S
DANBURY        CLEAR     44  42  93 CALM      30.27F
GROTON         CLEAR     49  47  93 CALM      30.26F
NEW HAVEN      CLEAR     47  45  93 CALM      30.27S
CHESTER        FAIR      54  54 100 CALM      30.27S
MERIDEN        CLEAR     44  42  93 CALM      30.26F
WILLIMANTIC    CLEAR     43  42  97 CALM      30.28S
OXFORD         CLEAR     47  46  97 CALM      30.27S
$$

MEZ002-015-021-024-NHZ003-005-008-011-012-014-VTZ005-008-190700-
NORTHERN NEW ENGLAND

CITY           SKY/WX    TMP DP  RH WIND       PRES   REMARKS
PORTLAND ME    CLEAR     44  41  89 CALM      30.23F
6HR MIN TEMP:  43; 6HR MAX TEMP:  55;

BANGOR ME      CLEAR     45  38  76 S5        30.22S
CONCORD NH     CLEAR     39  36  89 CALM      30.24F
MANCHESTER NH  CLEAR     46  43  89 CALM      30.23S
NASHUA NH      CLEAR     42  40  92 NW3       30.25S
PORTSMOUTH NH  PTCLDY    45  44  95 CALM      30.22S
JAFFREY NH     CLEAR     41  41 100 CALM      30.25S
KEENE NH       CLEAR     37  36  96 VRB5G16   30.26S
BURLINGTON VT  CLEAR     61  46  57 S13       30.15F
MT. WASHINGTON CLEAR     39  27  60 SW32        N/A  WCI  27
$$

NYZ052-076-190700-
EASTERN NEW YORK

CITY           SKY/WX    TMP DP  RH WIND       PRES   REMARKS
ALBANY         CLEAR     51  45  79 SW3       30.22S
6HR MIN TEMP:  49; 6HR MAX TEMP:  57;

NEW YORK CITY  CLEAR     62  46  55 SW8       30.26F
6HR MIN TEMP:  61; 6HR MAX TEMP:  65;

$$

ANZALL-190700-
MARINE OBSERVATIONS

STATION/POSITION TIME  TEMP    WIND        PRES    VSBY  WAVE
                       AIR SEA DIR/SP/G                  HT/PER
                 (UTC) (F)     (DEG/KT/KT) (MB)    (MI)  (FT/S)
BOSTON BUOY      0550   58 58  200/  6/ 10 1023.7F         1
BUZZARDS BAY     0500   62     220/ 12/ 13 1025.4F
NANTUCKET SOUND  0550   61 62  230/  8/ 10 1025.1F         1
MASS BAY-STELLWA 0504   60 60  220/  8/  8 1023.3F         1/11
ISLE OF SHOALS   0500   59     210/  9/ 10 1023.6F
S OF BLOCK IS    NOT AVBL
$$

......................KEY.........................
  SKY/WX - SKY CONDITION/PRESENT WEATHER
  TMP    - TEMPERATURE IN FAHRENHEIT
  DWPT   - DEWPOINT IN FAHRENHEIT
  RH     - RELATIVE HUMIDITY IN PERCENT
  WIND   - DIRECTION AND SPEED IN MPH
  PRES   - MEAN SEA LEVEL PRESSURE IN INCHES OF HG
  WCI    - WIND CHILL INDEX
  VSB    - VISIBILITY IN MILES
  HX     - HEAT INDEX
  TC     - TEMPERATURE IN CELSIUS
  VRB    - VARIABLE WIND DIRECTION
  N/A    - NOT AVAILABLE




USA.gov is the U.S. government's official web portal to all federal, state and local government web resources and services.